Location: Berg
(47.2344°N, 9.5296°E)
Time: 04:22:21
(UTC+00:00)

BEESAT 2 - Pass Details

Date: 04 December 2021
Orbit: 498 x 513 km, 64.9° (Epoch: 19 January)

Event Time Altitude Azimuth Distance (km) Brightness Sun altitude
Exits shadow 04:13:05 18° 24° (NNE) 1,341 ? -26.0°
Maximum altitude 04:13:38 18° 35° (NE) 1,320 ? -25.9°
Drops below altitude 10° 04:16:23 10° 80° (E) 1,747 ? -25.4°
Sets 04:19:06 0° 100° (E) 2,629 ? -25.0°
